Location: ???? ?????
(30.0052°N, 31.2891°E)
Time: 09:04:04
(UTC+00:00)

SEDSat Delta rocket - Pass Details

Date: 06 October 2022
Orbit: 532 x 995 km, 31.4° (Epoch: 04 December)

Event Time Altitude Azimuth Distance (km) Brightness Sun altitude
Rises 18:57:43 0° 276° (W) 3,461 7.6 -44.0°
Reaches altitude 10° 19:00:34 10° 265° (W) 2,587 6.7 -44.5°
Enters shadow 19:01:23 13° 260° (W) 2,363 6.4 -44.7°
